Location: Oberwangen
(47.4286°N, 8.9679°E)
Time: 07:49:33
(UTC+00:00)

Cosmos 1607 - Pass Details

Date: 20 October 2021
Orbit: 918 x 984 km, 65.0° (Epoch: 30 November)

Event Time Altitude Azimuth Distance (km) Brightness Sun altitude
Rises 18:52:14 0° 309° (NW) 3,645 8.0 -25.2°
Reaches altitude 10° 18:56:05 10° 286° (WNW) 2,678 7.3 -25.8°
Maximum altitude 18:59:12 14° 256° (WSW) 2,359 6.7 -26.3°
Drops below altitude 10° 19:02:17 10° 225° (SW) 2,645 6.6 -26.8°
Sets 19:06:04 0° 202° (SSW) 3,569 7.0 -27.5°
